Location: Cabrera Baja
(40.4089°N, 4.3354°W)
Time: 02:55:34
(UTC+00:00)

Cosmos 1975 Rocket - Pass Details

Date: 14 July 2020
Orbit: 604 x 633 km, 82.5° (Epoch: 03 August)

Event Time Altitude Azimuth Distance (km) Brightness Sun altitude
Rises 03:34:04 0° 357° (N) 2,907 7.2 -13.8°
Reaches altitude 10° 03:36:21 10° 3° (N) 2,001 6.4 -13.4°
Maximum altitude 03:40:40 51° 79° (E) 788 4.0 -12.9°
Drops below altitude 10° 03:45:00 10° 156° (SSE) 2,001 5.5 -12.3°
Sets 03:47:17 0° 162° (SSE) 2,907 6.3 -11.9°
